Location: ??????
(31.2991°N, 45.5541°E)
Time: 18:03:16
(UTC+00:00)

Daily predictions for brighter satellites

Satellite Brightness Start Highest point End
(mag) Time Altitude Azimuth Time Altitude Azimuth Time Altitude Azimuth
Centaur D-1A AC-35 3.6 14:49:55 10° WSW 14:53:43 52° SSE 15:05:50 10° E
Cosmos 2221 4.3 14:52:23 10° NE 14:54:05 12° ENE 14:55:47 10° E
Mugunghwa Rocket 4.5 14:48:41 10° W 14:54:54 59° S 15:01:34 10° ESE
Cosmos 1455 2.2 14:53:25 10° N 14:57:09 57° E 15:00:49 10° SSE
Okean-O 2.6 14:55:05 10° SSE 14:59:28 70° ENE 15:03:53 10° N
Cosmos-2242 3.0 14:56:29 10° N 15:00:47 89° E 15:05:01 10° S
OAO 3 Rocket 3.2 14:56:49 10° WSW 15:01:26 70° SSE 15:05:56 11° ENE
Meteor 2-10 Rocket 3.4 15:00:12 10° N 15:05:21 71° E 15:10:20 10° SSE
SL-8 Rocket 4.4 14:59:30 10° SSW 15:05:46 69° W 15:12:02 10° N
DELTA 2 R/B (1) 4.2 15:01:00 10° WNW 15:06:17 41° NNE 15:11:11 12° E
CZ-2D R/B 4.5 15:04:30 10° ESE 15:07:22 21° ENE 15:10:16 10° NNE
USA 234 3.7 15:02:55 10° ESE 15:08:54 40° NE 15:14:54 10° NNW
SL-16 R/B 2.2 15:04:40 10° N 15:10:15 58° ENE 15:15:48 10° SSE
SKYMED 2 3.8 15:06:02 10° N 15:10:22 73° WNW 15:14:40 10° SSW
Cosmos 1939 Rocket 3.9 15:07:31 10° SE 15:10:38 23° ENE 15:13:48 10° NNE
Cosmos 1727 Rocket 4.2 15:05:19 10° N 15:11:14 46° E 15:17:07 10° SSE
YAOGAN 1 2.9 15:13:06 10° SE 15:17:09 41° ENE 15:21:12 10° N
Ariane Rocket 4.3 15:17:07 10° ESE 15:20:23 17° ENE 15:23:38 10° NNE
Starlink 4th launch placeholder 3.3 15:18:40 10° NW 15:21:09 49° SW 15:23:36 10° SSE
Cosmos 2263 Rocket 2.5 15:16:30 10° S 15:21:45 45° ESE 15:27:02 10° NE
Cosmos 2058 4.0 15:21:58 10° SE 15:25:13 23° E 15:26:42 19° ENE
Meteor 1-11 4.3 15:20:12 10° S 15:25:48 80° W 15:31:24 10° N
USA 238 DEB 3.7 15:20:53 10° SSW 15:27:21 60° ESE 15:33:59 10° NE
USA 238 3.7 15:21:01 10° SSW 15:27:28 60° ESE 15:34:02 10° NE
Atlas Centaur 2 1.6 15:23:39 10° W 15:27:49 81° S 15:31:28 19° E
ADEOS Rocket 3.7 15:21:13 10° NNE 15:28:05 49° E 15:35:25 10° S
NOAA 11 4.3 15:24:23 10° SSE 15:29:44 55° ENE 15:35:05 10° N
YAOGAN 6 3.9 15:27:04 10° S 15:30:35 45° W 15:34:07 10° NNW
Meteor 1-27 4.3 15:28:05 10° N 15:33:31 52° E 15:38:57 10° SSE
H-2A R/B 3.5 15:32:30 10° WSW 15:34:54 23° S 15:40:41 10° SE
Cosmos 2056 Rocket 3.8 15:33:56 10° S 15:38:53 45° ESE 15:42:55 16° NE
Cosmos 1821 Rocket 4.0 15:33:36 10° S 15:39:53 64° E 15:46:08 10° NNE
Timation 1 Rocket 4.2 15:41:29 10° SSW 15:47:25 77° ESE 15:53:10 11° NNE
STARLINK-67 4.1 15:47:45 10° WSW 15:49:56 26° NW 15:50:27 24° NNW
CZ-4 R/B 2.4 15:48:09 10° S 15:52:03 49° W 15:56:04 10° NNW
Cosmos 1943 4.3 15:48:13 10° N 15:51:52 25° NE 15:51:52 25° NE
CSL-04 Debris 4.2 15:49:52 10° S 15:55:14 81° WSW 16:00:39 10° NNW
Cosmos 1842 Rocket 3.8 15:55:58 10° N 16:00:27 73° W 16:04:54 10° S
Cosmos 1892 4.5 15:57:40 10° SSE 15:59:00 19° SSE 15:59:00 19° SSE
H-2A ROCKET BODY 2.3 15:56:58 10° W 16:03:37 37° SSW 16:04:42 28° SSE
Delta 2 Rocket 4.4 15:58:35 10° SW 16:04:03 48° SSE 16:05:25 39° ESE
ATLAS CENTAUR R/B 1.2 16:03:54 10° NNW 16:07:41 70° WSW 16:08:51 40° S
Cosmos 1437 3.3 16:06:11 10° SSW 16:08:50 53° WSW 16:08:50 53° WSW
Cosmos 1934 Rocket 3.8 16:05:36 10° S 16:11:37 71° E 16:17:38 10° N
Meteor 2-2 Rocket 4.2 16:06:16 10° N 16:12:20 81° E 16:18:15 10° S
Centaur D AC-28 3.2 15:48:46 10° WSW 16:12:56 61° S 16:15:15 38° ESE
SL-4 R/B 4.4 16:10:40 10° S 16:11:59 15° SSE 16:11:59 15° SSE
CSL-04 Rocket 4.4 16:09:09 10° S 16:14:29 54° W 16:19:54 10° NNW
ATLAS 3B R/B 3.1 16:08:30 10° S 16:14:33 38° ESE 16:14:33 38° ESE
CCE 1 Rocket 4.0 16:10:19 10° WSW 16:14:55 45° S 16:15:04 44° SSE
Cosmos 2123 Rocket 4.1 16:09:07 10° N 16:15:11 48° E 16:21:09 10° SSE
IRS-1A Rocket 4.2 16:13:10 10° SSE 16:18:52 65° ENE 16:24:28 10° N
NOSS 3-2 (C) 3.1 16:14:39 10° SSW 16:20:11 83° ESE 16:21:58 47° NE
Cosmos 1000 Rocket 4.5 16:14:49 10° N 16:21:04 84° W 16:27:20 10° S
OAO 2 Rocket 3.2 16:16:35 10° W 16:21:28 68° NNW 16:21:47 66° NNE
CENTAUR R/B 2.2 16:25:45 10° SSW 16:31:18 76° ESE 16:31:45 72° ENE
Cosmos 2221 3.9 16:27:46 10° NNW 16:31:46 39° W 16:35:46 10° SSW
NOSS 3-2 (A) 4.3 16:32:30 10° SW 16:37:46 42° NW 16:40:50 25° N
OAO 3 Rocket 4.2 16:40:27 10° W 16:43:44 41° WNW 16:43:44 41° WNW
USA 234 4.0 16:46:40 16° SSE 16:51:44 48° SW 16:58:00 10° NW
DELTA 2 R/B (1) 4.0 16:47:26 10° WNW 16:51:59 60° WNW 16:51:59 60° WNW
Ariane Rocket 4.0 16:54:09 10° S 16:58:55 43° W 17:03:44 10° NNW
Cosmos 2263 Rocket 4.5 17:01:54 10° WSW 17:05:50 19° WNW 17:09:20 12° NNW
CZ-3C R/B 4.0 16:55:10 10° W 17:06:10 20° SW 17:09:02 15° SSW
Atlas Centaur 2 3.7 17:11:54 10° W 17:14:05 27° W 17:14:05 27° W
FALCON 9 R/B 3.6 17:23:18 10° W 17:33:03 47° WNW 17:33:03 47° WNW
